Flag for Russia Weather past 2 weeks in Murmansk, Russia

Now
-13 °F

Passing clouds.


Feels Like: -13 °F
Forecast: 4 / 12 °F
Wind: 1 mph from North

Location: Murmansk Airport

Current Time: Dec 22, 2014 at 9:14:05 PM

Latest Report: Dec 22, 2014 at 8:30 PM


Visibility: N/A

Pressure: 29.33 "Hg

Humidity: 76%

Dew point: -18 °F

Location of MurmanskLocation

Historic Weather in Murmansk — Graph

°F

Murmansk temperature yesterday

Maximum temperature yesterday: 28 °F (at 12:00 AM)
Minimum temperature yesterday: 21 °F (at 7:30 AM)
Average temperature yesterday: 26 °F

Past Weeks' High & Low Weather Summary

 TemperatureHumidityPressure
High36 °F (Dec 8, 4:00 PM)100% (Dec 21, 6:00 PM)29.59 "Hg (Dec 21, 6:00 PM)
Low-11 °F (Dec 22, 7:00 PM)70% (Dec 11, 12:00 PM)29.03 "Hg (Dec 20, 2:00 PM)
Average25 °F85%29.29 "Hg
* Reported Dec 7 8:00 PM — Dec 22 8:00 PM, Murmansk, Weather by CustomWeather, © 2014

Note: Actual official high and low records may vary slightly from our data, if they occured in-between our weather recording intervals... More about our weather records

Advertising

Murmansk weather history for previous 24 hours

 ConditionsComfort  
Time TempWeatherWind HumidityBarometerVisibility
8:00 PM
Dec 22
-11 °FPassing clouds.1 mph76%29.33 "HgN/A
7:30 PM-9 °FPassing clouds.1 mph77%29.33 "HgN/A
7:00 PM-11 °FPassing clouds.No wind76%29.33 "HgN/A
6:30 PM-8 °FScattered clouds.1 mph77%29.33 "HgN/A
6:00 PM-8 °FScattered clouds.1 mph77%29.33 "HgN/A
5:30 PM-9 °FSunny.1 mph77%29.33 "Hg10 mi
5:00 PM-8 °FSunny.1 mph77%29.33 "Hg10 mi
4:30 PM-8 °FSunny.No wind84%29.33 "Hg10 mi
4:00 PM-4 °FSunny.No wind77%29.33 "Hg10 mi
3:30 PM-6 °FScattered clouds.No wind77%29.33 "HgN/A
3:00 PM-6 °FScattered clouds.3 mph84%29.33 "HgN/A
2:30 PM0 °FScattered clouds.1 mph84%29.33 "HgN/A
2:00 PM-2 °FSunny.3 mph77%29.33 "Hg10 mi
1:30 PM1 °FSunny.3 mph78%29.33 "Hg10 mi
1:00 PM9 °FSunny.3 mph85%29.33 "Hg10 mi
12:30 PM14 °FSunny.1 mph85%29.33 "Hg10 mi
12:00 PM9 °FSunny.1 mph85%29.33 "Hg10 mi
11:30 AM7 °FSunny.1 mph85%29.33 "Hg10 mi
11:00 AM12 °FSunny.3 mph85%29.33 "Hg10 mi
10:30 AM9 °FSunny.1 mph92%29.30 "Hg10 mi
10:00 AM14 °FSunny.No wind85%29.30 "Hg10 mi
9:30 AM19 °FSunny.No wind86%29.30 "Hg10 mi
9:00 AM21 °FBroken clouds.No wind86%29.30 "HgN/A
8:00 AM23 °FPartly sunny.1 mph86%29.30 "HgN/A
7:30 AM23 °FPartly sunny.1 mph93%29.30 "HgN/A
7:00 AM23 °FPartly sunny.1 mph86%29.30 "HgN/A
6:00 AM25 °FSnow flurries. Partly sunny.1 mph93%29.30 "Hg5 mi
5:30 AM25 °FSnow flurries. Partly cloudy.1 mph93%29.30 "Hg6 mi
5:00 AM27 °FSnow flurries. Partly cloudy.3 mph93%29.30 "Hg3 mi
4:30 AM27 °FSnow flurries. Partly cloudy.3 mph93%29.30 "Hg4 mi
4:00 AM27 °FSnow flurries. Partly cloudy.3 mph93%29.30 "Hg4 mi
3:00 AM25 °FHeavy snow. Ice fog.1 mph93%29.30 "Hg1 mi
2:30 AM27 °FSnow flurries. Partly cloudy.No wind93%29.30 "Hg3 mi
2:00 AM25 °FSnow flurries. Partly cloudy.3 mph93%29.30 "HgN/A
1:30 AM27 °FSnow flurries. Partly cloudy.1 mph93%29.30 "Hg6 mi
1:00 AM27 °FHeavy snow. Ice fog.3 mph93%29.30 "Hg1 mi
12:00 AM25 °FSnow showers. Ice fog.1 mph93%29.30 "Hg1 mi
11:30 PM
Dec 21
27 °FSnow flurries. Partly cloudy.1 mph93%29.30 "Hg1 mi
11:00 PM25 °FSnow flurries. Partly cloudy.3 mph93%29.30 "HgN/A
10:30 PM27 °FSnow flurries. Partly cloudy.3 mph93%29.30 "HgN/A
10:00 PM25 °FSnow flurries. Partly cloudy.1 mph93%29.30 "Hg4 mi
9:30 PM23 °FHeavy snow. Ice fog.3 mph93%29.30 "Hg0 mi
9:00 PM25 °FPassing clouds.1 mph93%29.30 "HgN/A
Weather by CustomWeather, © 2014

See weather overviewHow to use our weather pages